La Grange, TX

5:15 AM CST on November 15, 2019 (GMT -0600)
La Grange

Weather History for K3T5 - August, 2019

Change the Weather History Date:

Wednesday, August 28, 2019

  Actual Average (KAUS) Record (KAUS)
Temperature  
Mean Temperature 88 °F -  
Max Temperature 97 °F 92 °F 110 °F (2011)
Min Temperature 78 °F 70 °F 61 °F (2010)
Cooling Degree Days 22    
Growing Degree Days 38 (Base 50)    
Moisture  
Dew Point 76 °F    
Average Humidity 77    
Maximum Humidity 100    
Minimum Humidity 43    
Precipitation  
Precipitation 0.00 in - - ()
Sea Level Pressure  
Sea Level Pressure 29.98 in    
Wind  
Wind Speed 2 mph (SE)    
Max Wind Speed 14 mph    
Max Gust Speed 21 mph    
Visibility 10 miles    
Events Rain , Thunderstorm    
Averages and records for this station are not official NWS values.
T = Trace of Precipitation, MM = Missing Value Source: NWS Daily Summary

Daily Weather History Graph

Daily Weather History Graph

Search for Another Location

Airport or City:

Astronomy

Aug. 28, 2019 Rise Set
Actual Time 7:02 AM CDT 7:55 PM CDT
Civil Twilight 6:38 AM CDT 8:19 PM CDT
Nautical Twilight 6:09 AM CDT 8:48 PM CDT
Astronomical Twilight 5:39 AM CDT 9:17 PM CDT
Moon 4:49 AM CDT (8/28) 6:56 PM CDT (8/28)
Length of Visible Light 13h 41m
Length of Day
12h 52m
Waning Crescent, 4% of the Moon is Illuminated
Aug 28
Waning Crescent
Aug 30
New
Sep 5
First Quarter
Sep 13
Full
Sep 21
Last Quarter

Hourly Weather History & Observations

Time (CDT) Temp. Heat Index Dew Point Humidity Pressure Visibility Wind Dir Wind Speed Gust Speed Precip Events Conditions
12:15 AM 82.6 °F 91.1 °F 77.0 °F 83% 29.98 in 10.0 mi Calm Calm - N/A   Clear
12:35 AM 82.4 °F 90.9 °F 77.0 °F 84% 29.98 in 10.0 mi Calm Calm - N/A   Clear
12:55 AM 80.6 °F 87.5 °F 77.7 °F 91% 29.98 in 10.0 mi Calm Calm - N/A   Clear
1:15 AM 81.0 °F 88.1 °F 77.4 °F 89% 29.98 in 10.0 mi Calm Calm - N/A   Clear
1:35 AM 80.8 °F 87.8 °F 77.7 °F 90% 29.98 in 10.0 mi SSW 3.5 mph - N/A   Clear
1:55 AM 80.8 °F 88.0 °F 78.1 °F 91% 29.98 in 10.0 mi Calm Calm - N/A   Clear
2:15 AM 80.1 °F 86.6 °F 78.4 °F 95% 29.98 in 10.0 mi Calm Calm - N/A   Clear
2:35 AM 79.0 °F - 78.4 °F 98% 29.98 in 10.0 mi Calm Calm - N/A   Clear
2:55 AM 78.8 °F - 78.8 °F 100% 29.97 in 10.0 mi Calm Calm - N/A   Clear
3:15 AM 78.1 °F - 78.1 °F 100% 29.97 in 10.0 mi Calm Calm - N/A   Clear
3:35 AM 79.3 °F - 79.2 °F 99% 29.98 in 10.0 mi Calm Calm - N/A   Clear
3:55 AM 79.7 °F - 79.2 °F 98% 29.98 in 10.0 mi Calm Calm - N/A   Clear
4:15 AM 79.9 °F - 79.5 °F 99% 29.98 in 10.0 mi Calm Calm - N/A   Clear
4:35 AM 79.5 °F - 79.5 °F 100% 29.98 in 10.0 mi Calm Calm - N/A   Clear
4:55 AM 79.7 °F - 79.5 °F 99% 29.98 in 10.0 mi Calm Calm - N/A   Clear
5:15 AM 79.9 °F - 79.7 °F 99% 29.98 in 10.0 mi Calm Calm - N/A   Clear
5:35 AM 79.3 °F - 79.3 °F 100% 29.98 in 10.0 mi Calm Calm - N/A   Clear
5:55 AM 79.2 °F - 79.2 °F 100% 29.98 in 10.0 mi Calm Calm - N/A   Clear
6:15 AM 79.0 °F - 79.0 °F 100% 29.99 in 10.0 mi Calm Calm - N/A   Clear
6:35 AM 78.8 °F - 78.8 °F 100% 29.99 in 10.0 mi Calm Calm - N/A   Clear
6:55 AM 79.0 °F - 79.0 °F 100% 30.00 in 10.0 mi Calm Calm - N/A   Clear
7:15 AM 78.3 °F - 78.3 °F 100% 29.99 in 10.0 mi Calm Calm - N/A   Clear
7:35 AM 78.3 °F - 78.3 °F 100% 30.00 in 7.0 mi Calm Calm - N/A   Clear
7:55 AM 79.7 °F - 79.7 °F 100% 30.00 in 10.0 mi Calm Calm - N/A   Clear
8:15 AM 81.1 °F 90.8 °F 80.6 °F 98% 30.01 in 10.0 mi Calm Calm - N/A   Clear
8:35 AM 82.4 °F 93.7 °F 80.2 °F 93% 30.01 in 10.0 mi Calm Calm - N/A   Clear
8:55 AM 83.8 °F 96.7 °F 79.9 °F 88% 30.02 in 10.0 mi Calm Calm - N/A   Clear
9:15 AM 85.5 °F 99.1 °F 79.3 °F 82% 30.01 in 10.0 mi Calm Calm - N/A   Scattered Clouds
9:35 AM 85.8 °F 99.3 °F 79.0 °F 80% 30.02 in 10.0 mi Calm Calm - N/A   Scattered Clouds
9:55 AM 86.9 °F 99.3 °F 77.7 °F 74% 30.02 in 10.0 mi Calm Calm - N/A   Mostly Cloudy
10:15 AM 87.3 °F 100.4 °F 77.9 °F 74% 30.03 in 10.0 mi Calm Calm - N/A   Overcast
10:35 AM 88.2 °F 101.2 °F 77.7 °F 71% 30.03 in 10.0 mi Calm Calm - N/A   Overcast
10:55 AM 89.2 °F 101.8 °F 77.0 °F 67% 30.03 in 10.0 mi SSW 3.5 mph - N/A   Scattered Clouds
11:15 AM 90.1 °F 103.0 °F 77.0 °F 65% 30.04 in 10.0 mi South 4.6 mph - N/A   Scattered Clouds
11:35 AM 90.5 °F 104.0 °F 77.2 °F 65% 30.04 in 10.0 mi WSW 3.5 mph - N/A   Overcast
11:55 AM 91.2 °F 103.3 °F 76.3 °F 61% 30.03 in 10.0 mi Calm Calm - N/A   Mostly Cloudy
12:35 PM 90.9 °F 101.2 °F 74.8 °F 59% 30.02 in 10.0 mi Calm Calm - N/A   Mostly Cloudy
12:55 PM 93.7 °F 105.0 °F 74.8 °F 54% 30.01 in 10.0 mi NE 4.6 mph - N/A   Scattered Clouds
1:15 PM 94.3 °F 104.9 °F 74.1 °F 52% 30.01 in 10.0 mi North 4.6 mph - N/A   Clear
2:15 PM 97.7 °F 107.1 °F 72.5 °F 44% 30.01 in 10.0 mi ESE 3.5 mph - N/A   Scattered Clouds
2:35 PM 97.7 °F 106.4 °F 71.4 °F 43% 30.00 in 10.0 mi Calm Calm - N/A   Scattered Clouds
2:55 PM 97.3 °F 105.6 °F 71.6 °F 43% 29.99 in 7.0 mi East 5.8 mph - N/A Thunderstorm Scattered Clouds
3:15 PM 93.0 °F 103.2 °F 73.9 °F 54% 29.99 in 10.0 mi NE 11.5 mph 20.7 mph N/A Thunderstorm Thunderstorm
3:35 PM 92.5 °F 100.7 °F 72.5 °F 52% 29.99 in 10.0 mi NNE 13.8 mph 19.6 mph N/A Rain , Thunderstorm Light Thunderstorms and Rain
3:55 PM 85.5 °F 92.6 °F 73.4 °F 67% 29.97 in 10.0 mi North 5.8 mph - N/A Rain , Thunderstorm Light Thunderstorms and Rain
4:15 PM 85.8 °F 93.8 °F 74.1 °F 68% 29.95 in 10.0 mi East 4.6 mph - N/A   Light Drizzle
4:35 PM 86.0 °F 95.1 °F 75.4 °F 70% 29.96 in 10.0 mi East 3.5 mph - N/A Rain Light Rain
5:15 PM 88.7 °F 99.3 °F 75.7 °F 65% 29.95 in 10.0 mi East 3.5 mph - N/A   Clear
5:35 PM 91.8 °F 103.4 °F 75.6 °F 59% 29.94 in 10.0 mi East 5.8 mph - N/A   Clear
5:55 PM 91.9 °F 103.9 °F 75.6 °F 59% 29.94 in 10.0 mi ESE 3.5 mph - N/A   Clear
6:15 PM 92.3 °F 104.1 °F 75.7 °F 58% 29.94 in 10.0 mi SE 6.9 mph - N/A   Clear
6:35 PM 92.3 °F 102.8 °F 74.5 °F 56% 29.94 in 10.0 mi SE 5.8 mph - N/A   Clear
6:55 PM 91.2 °F 100.8 °F 74.3 °F 57% 29.94 in 10.0 mi SE 8.1 mph - N/A   Clear
7:15 PM 90.7 °F 100.1 °F 74.1 °F 58% 29.94 in 10.0 mi SE 3.5 mph - N/A   Clear
7:35 PM 89.8 °F 98.6 °F 73.6 °F 59% 29.94 in 10.0 mi Calm Calm - N/A   Clear
7:55 PM 88.2 °F 96.9 °F 74.1 °F 63% 29.94 in 10.0 mi SE 3.5 mph - N/A   Clear
8:15 PM 86.9 °F 95.0 °F 73.8 °F 65% 29.94 in 10.0 mi SSE 3.5 mph - N/A   Clear
8:35 PM 85.6 °F 93.8 °F 74.3 °F 69% 29.95 in 10.0 mi SSE 6.9 mph - N/A   Clear
8:55 PM 85.3 °F 92.6 °F 73.8 °F 68% 29.95 in 10.0 mi South 4.6 mph - N/A   Clear
9:15 PM 84.7 °F 92.1 °F 73.9 °F 70% 29.96 in 10.0 mi SSE 3.5 mph - N/A   Clear
9:35 PM 84.0 °F 91.2 °F 73.9 °F 72% 29.96 in 10.0 mi SSE 4.6 mph - N/A   Clear
9:55 PM 83.5 °F 90.6 °F 74.3 °F 74% 29.98 in 10.0 mi SSE 4.6 mph - N/A   Clear
10:15 PM 83.1 °F 89.8 °F 74.1 °F 74% 29.99 in 10.0 mi SSE 3.5 mph - N/A   Clear
10:35 PM 82.4 °F 88.7 °F 74.1 °F 76% 29.99 in 10.0 mi SSE 3.5 mph - N/A   Clear
10:55 PM 81.5 °F 87.4 °F 74.3 °F 79% 29.99 in 10.0 mi South 3.5 mph - N/A   Clear
11:15 PM 81.1 °F 87.0 °F 74.7 °F 81% 30.00 in 10.0 mi SSE 3.5 mph - N/A   Clear
11:35 PM 80.2 °F 85.2 °F 74.5 °F 83% 30.00 in 10.0 mi South 3.5 mph - N/A   Clear
11:55 PM 80.2 °F 85.4 °F 74.8 °F 84% 30.00 in 10.0 mi SSE 5.8 mph - N/A   Clear